Location: Goll?ig?dem
(16.6773°N, 80.7332°E)
Time: 17:10:08
(UTC+00:00)

H-2A R/B - Pass Details

Date: 19 May 2025
Orbit: 730 x 829 km, 98.3° (Epoch: 13 June)

Event Time Altitude Azimuth Distance (km) Brightness Sun altitude
Rises 23:00:54 0° 347° (NNW) 3,364 5.5 -14.9°
Reaches altitude 10° 23:03:59 10° 329° (NNW) 2,428 4.5 -14.2°
Maximum altitude 23:07:29 18° 288° (WNW) 1,926 3.7 -13.4°
Enters shadow 23:09:06 16° 266° (W) 2,036 3.6 -13.1°
